This is the latest recevied weather packets stored in our database for station/object F6ZBX-10. If no packets are shown the sender has not sent any weather packets the latest 10 day(s).
| Time | Temp. | Humidity | Pressure | Rain* | Wind** | Luminosity | Snow |
|---|---|---|---|---|---|---|---|
| 1787531741 | 27.78° C | 59% | 1014.4 hPa | - | - | - | - |
| 1787530840 | 27.78° C | 59% | 1014.5 hPa | - | - | - | - |
| 1787529038 | 27.78° C | 58% | 1014.4 hPa | - | - | - | - |
| 1787528138 | 27.78° C | 58% | 1014.1 hPa | - | - | - | - |
| 1787527238 | 27.78° C | 58% | 1014.5 hPa | - | - | - | - |
| 1787525438 | 27.78° C | 59% | 1015 hPa | - | - | - | - |
| 1787524538 | 27.78° C | 58% | 1016.1 hPa | - | - | - | - |
| 1787523638 | 27.78° C | 59% | 1014.5 hPa | - | - | - | - |
| 1787522738 | 28.33° C | 59% | 1013.8 hPa | - | - | - | - |
| 1787521838 | 28.33° C | 60% | 1015.3 hPa | - | - | - | - |
| 1787520938 | 28.33° C | 60% | 1016.1 hPa | - | - | - | - |
| 1787520041 | 28.33° C | 60% | 1016.1 hPa | - | - | - | - |
| 1787519138 | 28.33° C | 60% | 1015.7 hPa | - | - | - | - |
| 1787518238 | 28.33° C | 60% | 1015.5 hPa | - | - | - | - |
| 1787517338 | 27.78° C | 62% | 1015 hPa | - | - | - | - |
| 1787515538 | 28.33° C | 61% | 1014.7 hPa | - | - | - | - |
| 1787514638 | 28.33° C | 60% | 1013.8 hPa | - | - | - | - |
| 1787513738 | 28.33° C | 61% | 1012.2 hPa | - | - | - | - |
| 1787512838 | 28.33° C | 62% | 1012 hPa | - | - | - | - |
| 1787511938 | 27.78° C | 61% | 1011.4 hPa | - | - | - | - |
| 1787511038 | 28.89° C | 58% | 1011.8 hPa | - | - | - | - |
| 1787510138 | 28.89° C | 57% | 1012 hPa | - | - | - | - |
| 1787509238 | 28.89° C | 61% | 1012 hPa | - | - | - | - |
| 1787508339 | 28.89° C | 60% | 1011.9 hPa | - | - | - | - |
| 1787507440 | 29.44° C | 59% | 1012 hPa | - | - | - | - |
* Rain since midnight (hover to see other rain measurements)
** Current wind speed in m/s (hover to see current wind gust speed)